User: anonymous   Login
Location: Unspecified
(43.4680°N, 87.1740°E)
Time: 13:17:21
(UTC+00:00)
Language:

Cosmos 2082 - Orbit

View from above orbital plane
View from above orbital plane
View from above satellite
View from above satellite

Ground track
Ground track

The orbit data is extracted from the following two-line orbital elements,

1 20624U 90046A   21173.88822775 -.00000015  00000-0  16906-4 0  9997
2 20624  71.0416  24.3919 0016779 305.8559  54.1005 14.14363939604310
Epoch (UTC): 22 June 2021 21:19:02
Eccentricity: 0.0016779
inclination: 71.0416°
perigee height: 832 km
apogee height: 856 km
right ascension of ascending node: 24.3919°
argument of perigee: 305.8559°
revolutions per day: 14.14363939
mean anomaly at epoch: 54.1005°
orbit number at epoch: 60431

The dashed part of the orbit path shows where the satellite is in the earth's shadow,  

DLR